This demonstration page uses our WeatherBlox Daily Observations layout. Learn more.

Hourly Observations for August 14, 2015

Temp ( °F °C ) Dew Point ( °F °C ) Humidity (%) Winds ( mph kmh ) Pressure ( in mb ) Visibility ( mi km ) Precip ( " mm )
12:15 am 00:15 Clear 71 21.7 62 16.5 72 72 Calm 29.97 1015 10 16.0934 0 0
12:35 am 00:35 Clear 70 20.9 63 17 78 78 W 3 6 29.97 1015 10 16.0934 0 0
12:55 am 00:55 Clear 68 19.8 63 17.2 85 85 NNE 12 19 30.06 1018 10 16.0934 0 0
1:15 am 01:15 Clear 67 19.2 63 17.2 88 88 NE 10 17 30.06 1018 10 16.0934 0 0
1:35 am 01:35 Clear 67 19.4 62 16.7 84 84 E 6 9 30.06 1018 10 16.0934 0 0
1:55 am 01:55 Clear 67 19.5 62 16.5 83 83 E 7 11 30.06 1018 10 16.0934 0 0
2:15 am 02:15 Clear 65 18.5 62 16.5 88 88 ESE 6 9 30.03 1017 10 16.0934 0 0
2:35 am 02:35 Clear 65 18.3 61 16.2 88 88 E 5 7 30.06 1018 10 16.0934 0 0
2:55 am 02:55 Clear 65 18.5 61 16.2 87 87 SE 5 7 30.03 1017 10 16.0934 0 0
3:15 am 03:15 Clear 65 18.1 61 16.1 88 88 S 5 7 30.06 1018 10 16.0934 0 0
3:35 am 03:35 Clear 65 18.6 61 16.1 85 85 Calm 30.06 1018 10 16.0934 0 0
3:55 am 03:55 Clear 64 17.8 61 16 89 89 Calm 30.06 1018 10 16.0934 0 0
4:15 am 04:15 Clear 64 17.7 61 15.9 89 89 SE 5 7 30.06 1018 10 16.0934 0 0
4:35 am 04:35 Clear 65 18.1 61 16 88 88 SSE 5 7 30.06 1018 10 16.0934 0 0
4:55 am 04:55 Clear 64 18 61 16 88 88 SSE 3 6 30.06 1018 10 16.0934 0 0
5:15 am 05:15 Clear 65 18.5 61 16.1 86 86 S 6 9 30.06 1018 10 16.0934 0 0
5:35 am 05:35 Clear 65 18.4 61 16.2 87 87 S 3 6 30.06 1018 10 16.0934 0 0
5:55 am 05:55 Clear 66 18.8 61 16.2 85 85 S 6 9 30.06 1018 10 16.0934 0 0
6:15 am 06:15 Clear 66 18.7 61 16.1 85 85 S 3 6 30.06 1018 10 16.0934 0 0
6:35 am 06:35 Clear 66 18.7 61 16.1 85 85 SSW 3 6 30.06 1018 10 16.0934 0 0
6:55 am 06:55 Sunny 66 19 61 16.1 83 83 S 5 7 30.06 1018 10 16.0934 0 0
7:15 am 07:15 Mostly Cloudy 67 19.6 62 16.5 82 82 S 5 7 30.06 1018 10 16.0934 0 0
7:35 am 07:35 Partly Cloudy 67 19.3 62 16.6 84 84 SSE 3 6 30.06 1018 10 16.0934 0 0
7:55 am 07:55 Partly Cloudy 68 20 63 17.1 83 83 Calm 30.06 1018 10 16.0934 0 0
8:15 am 08:15 Mostly Cloudy 69 20.4 63 17.1 81 81 SSE 3 6 30.06 1018 10 16.0934 0 0
8:35 am 08:35 Partly Cloudy 70 21.1 64 17.7 81 81 SE 6 9 30.03 1017 10 16.0934 0 0
8:55 am 08:55 Sunny 71 21.5 64 17.8 80 80 SE 3 6 30.03 1017 10 16.0934 0 0
9:15 am 09:15 Sunny 72 22.2 64 17.7 76 76 SSE 5 7 30.03 1017 10 16.0934 0 0
9:35 am 09:35 Sunny 74 23.2 64 17.8 72 72 SSE 6 9 30.03 1017 10 16.0934 0 0
9:55 am 09:55 Sunny 75 23.8 64 17.9 70 70 S 5 7 30.03 1017 10 16.0934 0 0
10:15 am 10:15 Sunny 76 24.4 64 18 68 68 SSE 6 9 30.03 1017 10 16.0934 0 0
10:35 am 10:35 Sunny 77 25.2 65 18.4 66 66 S 6 9 30 1016 10 16.0934 0 0
10:55 am 10:55 Sunny 78 25.5 65 18.3 64 64 SSE 5 7 30 1016 10 16.0934 0 0
11:15 am 11:15 Sunny 78 25.8 65 18.5 64 64 SSW 3 6 30 1016 10 16.0934 0 0
11:35 am 11:35 Sunny 80 26.5 66 19.1 64 64 Calm 30 1016 10 16.0934 0 0
11:55 am 11:55 Sunny 81 27.1 67 19.6 64 64 SSE 5 7 30 1016 10 16.0934 0 0
12:15 pm 12:15 Sunny 82 27.6 68 19.9 63 63 S 6 9 30 1016 10 16.0934 0 0
12:35 pm 12:35 Sunny 82 27.7 67 19.5 61 61 SSE 6 9 30 1016 10 16.0934 0 0
12:55 pm 12:55 Sunny 83 28.1 68 19.9 61 61 SSE 8 13 30 1016 10 16.0934 0 0
1:15 pm 13:15 Sunny 83 28.5 68 20.1 60 60 SE 7 11 29.97 1015 10 16.0934 0 0
1:35 pm 13:35 Sunny 84 29.1 68 20 58 58 SE 6 9 29.97 1015 10 16.0934 0 0
1:55 pm 13:55 Partly Cloudy 85 29.2 68 19.8 57 57 SSE 9 15 29.97 1015 10 16.0934 0 0
2:15 pm 14:15 Sunny 85 29.7 67 19.6 55 55 SE 9 15 29.97 1015 10 16.0934 0 0
2:35 pm 14:35 Sunny 87 30.3 66 19 51 51 SE 7 11 29.97 1015 10 16.0934 0 0
2:55 pm 14:55 Sunny 87 30.4 67 19.4 52 52 SE 9 15 29.97 1015 10 16.0934 0 0
3:15 pm 15:15 Sunny 87 30.4 67 19.3 51 51 SE 10 17 29.97 1015 10 16.0934 0 0
3:35 pm 15:35 Partly Cloudy 86 30.2 66 19 51 51 SSE 10 17 29.97 1015 10 16.0934 0 0
3:55 pm 15:55 Partly Cloudy 87 30.3 65 18.6 50 50 SSE 10 17 29.97 1015 10 16.0934 0 0
4:15 pm 16:15 Partly Cloudy 87 30.7 65 18.4 48 48 S 14 22 29.97 1015 10 16.0934 0 0
4:35 pm 16:35 Sunny 87 30.5 65 18.2 48 48 SSE 10 17 29.97 1015 10 16.0934 0 0
4:55 pm 16:55 Sunny 86 30.2 65 18.5 50 50 SSE 10 17 29.97 1015 10 16.0934 0 0
5:15 pm 17:15 Sunny 88 30.9 66 18.7 48 48 SSE 9 15 29.97 1015 10 16.0934 0 0
5:35 pm 17:35 Sunny 87 30.8 66 18.9 49 49 SSE 10 17 29.97 1015 10 16.0934 0 0
5:55 pm 17:55 Sunny 87 30.5 66 18.9 50 50 SSE 9 15 29.97 1015 10 16.0934 0 0
6:15 pm 18:15 Sunny 87 30.4 67 19.2 51 51 SSE 10 17 29.97 1015 10 16.0934 0 0
6:35 pm 18:35 Sunny 86 30.1 66 19 51 51 SE 8 13 29.97 1015 10 16.0934 0 0
6:55 pm 18:55 Sunny 85 29.7 67 19.7 55 55 SE 8 13 29.94 1014 10 16.0934 0 0
7:15 pm 19:15 Sunny 85 29.2 67 19.2 55 55 SE 10 17 29.94 1014 10 16.0934 0 0
7:35 pm 19:35 Sunny 83 28.6 67 19.6 58 58 SE 7 11 29.94 1014 10 16.0934 0 0
7:55 pm 19:55 Sunny 82 27.5 69 20.3 65 65 ESE 7 11 29.94 1014 10 16.0934 0 0
8:15 pm 20:15 Sunny 80 26.4 69 20.4 70 70 ESE 8 13 29.97 1015 10 16.0934 0 0
8:35 pm 20:35 Sunny 77 25.2 68 20 73 73 ESE 7 11 29.97 1015 10 16.0934 0 0
8:55 pm 20:55 Clear 76 24.2 68 20 77 77 ESE 7 11 30.03 1017 10 16.0934 0 0
9:15 pm 21:15 Clear 74 23.6 68 19.8 79 79 SE 8 13 30.03 1017 10 16.0934 0 0
9:35 pm 21:35 Clear 73 23 67 19.7 82 82 SE 7 11 30.03 1017 10 16.0934 0 0
9:55 pm 21:55 Clear 73 23 67 19.3 80 80 SE 7 11 30.03 1017 10 16.0934 0 0
10:15 pm 22:15 Clear 73 22.6 66 19.1 81 81 SE 8 13 30.03 1017 10 16.0934 0 0
10:35 pm 22:35 Clear 72 22 66 19.1 84 84 SE 8 13 30.03 1017 10 16.0934 0 0
10:55 pm 22:55 Clear 72 22 66 19 83 83 SE 8 13 30.03 1017 10 16.0934 0 0
11:15 pm 23:15 Clear 72 22.1 66 19 83 83 SE 8 13 30.03 1017 10 16.0934 0 0
11:35 pm 23:35 Clear 72 22 65 18.5 81 81 SE 9 15 30.03 1017 10 16.0934 0 0
11:55 pm 23:55 Clear 71 21.5 65 18.3 82 82 SE 7 11 30.03 1017 10 16.0934 0 0

Powered by AerisWeather